User: anonymous   Login
Location: Unspecified
(0.0000°N, 0.0000°E)
Time: 08:56:58
(UTC+00:00)
Language:

DNEPR OBJECT AD - Orbit

View from above orbital plane
View from above orbital plane
View from above satellite
View from above satellite

Ground track
Ground track

The orbit data is extracted from the following two-line orbital elements,

1 39443U 13066AD  17204.42342389 +.00000514 +00000-0 +52935-4 0  9996
2 39443 097.6533 268.9594 0026381 093.9750 266.4487 14.94196850197746
Epoch (UTC): 23 July 2017 10:09:43
Eccentricity: 0.0026381
inclination: 97.6533°
perigee height: 566 km
apogee height: 603 km
right ascension of ascending node: 268.9594°
argument of perigee: 93.9750°
revolutions per day: 14.94196850
mean anomaly at epoch: 266.4487°
orbit number at epoch: 19774

The dashed part of the orbit path shows where the satellite is in the earth's shadow,  

DLR